Showing default

CHINASAT 2D, 43920

Orbit data source: Space-Track

CHINASAT 2D, 43920 is a payload satellite owned by PLA SSF (CN) in GEO that was launched on Thu, 10 Jan 2019 UTC via a CHANG ZHENG 3B launch vehicle from the Xichang Space Center, China (XSC). Payload-class satellites include a variety of spacecraft equipped with specific instruments for various scientific and technological missions. These include communications satellites like Starlink; space stations such as the ISS; scientific satellites like the Hubble; Earth observation satellites from companies like Planet Labs, Umbra, and HawkEye 360; GPS; miniature CubeSats for education and research; and military/defense satellites.

Not visible in the next 10 days
Identifier
43920, 2019-001A
Orbit
GEO
Country
Flag of CNCN / PRC
Related business
Manufacturer
CAST?
Mission
Operational Defense Communications
Bus & Motor
DFH-4?, DFH-4 LAE
Mass
~5,000 kg wet, ~2,500 kg dry
Launch date (UTC)
2019-01-10 (7 years ago)
Launch vehicle
CHANG ZHENG 3B
Launch site
Xichang Space Center, China (XSC)
Object type
Payload
Rocket body
Debris
Shape & HBR
Box + 2 Pan, 15.0 m
Radar Cross Section
34.063 m², Large (>1 m²)

Expand to show TLE details & history
Last TLE update: 9 hours ago

TLE from 9 hours ago
0 CHINASAT 2D
1 43920U 19001A   25291.29404275 -.00000343  00000-0  00000+0 0  9991
2 43920   0.0639  59.4126 0002698 194.9661   8.5356  1.00273527 51657
Epoch: 2025-10-18T07:03Z
TLE epoch observation values (Epoch: 2025-10-18T07:03:25.293Z)
Latitude
0.00386°
Longitude
130.01634°
Altitude
35,774.373 km
Speed
3.076 km/s
True Right ascension
17h 31m 35s
True Declination
0° 00' 14"
Sunlit
Object was in daylight at epoch
Visualization orbit readout
Latitude
Unknown
Longitude
Unknown
Altitude
Unknown
Speed
Unknown
Apparent Right ascension
Unknown
Apparent Declination
Unknown
Sunlit
N/A
Visualization observer readout
Local Sidereal Time
11:22:10
Azimuth
Unknown
Elevation
Unknown
Doppler factor
Unknown
Orbital elements
Apogee altitude
35,798.553 km
Perigee altitude
35,775.801 km
Semi-major axis
42,165.314 km
Eccentricity
0.00027
Inclination
0.0639°
RAAN
59.4126°
Arg. of periapsis
194.9661°
True anomaly
8.54019°
Mean anomaly
8.5356°
Eccentric anomaly
8.5379°
Mean motion
0.25067 °/min
Orbital period
1,436.13 mins
BSTAR
0
Loading maneuver chart data...
Computing Atmospheric mass density...
Loading historical data...
Loading historical data...
Loading historical data...
Loading historical data...
Loading historical data...
Loading historical data...
Loading historical data...
Other satellites on launch #1 in the year 2019 (2019-01-10 UTC)

Documentation

Showing up to 5 results
|